ARG1654 SACO-SABE

Flight info

Callsign ARG1654
Flight time 1h 15m
Altitude 33000
Route UTRAX1G UTRAX UW24 SNT SNT9R
Aircraft E190/M-SDE3GILORVW/S

Departure

Time 2026-05-09 03:31
Airport Ingeniero Aeronáutico Ambrosio L.V. Taravella International Airport (SACO)

Arrival

Time 2026-05-09 04:47
Airport Aeroparque Jorge Newbery (SABE)
Time Latitude Longitude Altitude Speed Heading
2026-05-09 03:11 -31.31615 -64.21164 1612 ft 0 kts 269°
2026-05-09 03:21 -31.31615 -64.21156 1612 ft 2 kts 280°
2026-05-09 03:21 -31.31617 -64.21139 1612 ft 2 kts 266°
2026-05-09 03:21 -31.31616 -64.21122 1612 ft 2 kts 271°
2026-05-09 03:21 -31.31616 -64.21107 1612 ft 1 kts 277°
2026-05-09 03:22 -31.31622 -64.21099 1612 ft 1 kts 344°
2026-05-09 03:22 -31.31635 -64.21100 1612 ft 2 kts
2026-05-09 03:22 -31.31643 -64.21099 1612 ft 0 kts 354°
2026-05-09 03:24 -31.31642 -64.21099 1612 ft 0 kts 354°
2026-05-09 03:24 -31.31627 -64.21100 1612 ft 5 kts
2026-05-09 03:25 -31.31584 -64.21092 1612 ft 5 kts 21°
2026-05-09 03:25 -31.31547 -64.21074 1612 ft 3 kts 13°
2026-05-09 03:25 -31.31520 -64.21074 1612 ft 4 kts 360°
2026-05-09 03:25 -31.31494 -64.21054 1612 ft 5 kts 50°
2026-05-09 03:26 -31.31469 -64.21014 1612 ft 7 kts 68°
2026-05-09 03:26 -31.31463 -64.20986 1612 ft 0 kts 85°
2026-05-09 03:26 -31.31464 -64.20965 1612 ft 4 kts 90°
2026-05-09 03:26 -31.31464 -64.20953 1612 ft 0 kts 90°
2026-05-09 03:27 -31.31464 -64.20951 1612 ft 0 kts 90°
2026-05-09 03:27 -31.31464 -64.20948 1612 ft 0 kts 90°
2026-05-09 03:27 -31.31453 -64.20891 1612 ft 14 kts 57°
2026-05-09 03:27 -31.31326 -64.20828 1612 ft 27 kts 358°
2026-05-09 03:28 -31.31093 -64.20838 1612 ft 38 kts 357°
2026-05-09 03:28 -31.30796 -64.20832 1612 ft 47 kts 357°
2026-05-09 03:28 -31.30445 -64.20845 1612 ft 55 kts 358°
2026-05-09 03:28 -31.30040 -64.20855 1612 ft 60 kts
2026-05-09 03:29 -31.29776 -64.20853 1612 ft 20 kts 355°
2026-05-09 03:29 -31.29651 -64.20877 1612 ft 16 kts 337°
2026-05-09 03:29 -31.29595 -64.20884 1612 ft 4 kts 60°
2026-05-09 03:29 -31.29608 -64.20860 1612 ft 4 kts 169°
2026-05-09 03:30 -31.29626 -64.20859 1612 ft 0 kts 179°
2026-05-09 03:30 -31.29635 -64.20859 1612 ft 3 kts 179°
2026-05-09 03:30 -31.29737 -64.20856 1612 ft 39 kts 180°
2026-05-09 03:31 -31.30392 -64.20842 1612 ft 140 kts 179°
2026-05-09 03:31 -31.31550 -64.20802 1929 ft 186 kts 177°
2026-05-09 03:31 -31.32855 -64.20709 2911 ft 198 kts 176°
2026-05-09 03:31 -31.34236 -64.20564 3922 ft 208 kts 173°
2026-05-09 03:32 -31.35673 -64.20323 4943 ft 218 kts 170°
2026-05-09 03:32 -31.37216 -64.19981 5806 ft 236 kts 169°
2026-05-09 03:32 -31.38942 -64.19504 6093 ft 279 kts 157°
2026-05-09 03:32 -31.40435 -64.18017 6576 ft 299 kts 122°
2026-05-09 03:33 -31.41313 -64.15777 7210 ft 295 kts 115°
2026-05-09 03:33 -31.42282 -64.13797 7677 ft 266 kts 122°
2026-05-09 03:33 -31.43277 -64.12006 8221 ft 264 kts 124°
2026-05-09 03:33 -31.44303 -64.10249 8788 ft 268 kts 124°
2026-05-09 03:34 -31.45375 -64.08451 9362 ft 272 kts 125°
2026-05-09 03:34 -31.46479 -64.06618 9937 ft 276 kts 125°
2026-05-09 03:34 -31.47584 -64.04790 10506 ft 279 kts 125°
2026-05-09 03:34 -31.48714 -64.02924 11083 ft 281 kts 125°
2026-05-09 03:35 -31.49842 -64.01064 11646 ft 284 kts 125°
2026-05-09 03:35 -31.50986 -63.99176 12214 ft 286 kts 125°
2026-05-09 03:35 -31.52135 -63.97279 12780 ft 288 kts 125°
2026-05-09 03:35 -31.53293 -63.95367 13345 ft 291 kts 125°
2026-05-09 03:36 -31.54473 -63.93417 13916 ft 293 kts 125°
2026-05-09 03:36 -31.55654 -63.91465 14483 ft 296 kts 125°
2026-05-09 03:36 -31.56836 -63.89510 15045 ft 298 kts 125°
2026-05-09 03:36 -31.58043 -63.87513 15623 ft 303 kts 125°
2026-05-09 03:37 -31.59254 -63.85508 16200 ft 306 kts 125°
2026-05-09 03:37 -31.60481 -63.83475 16832 ft 307 kts 125°
2026-05-09 03:37 -31.61731 -63.81404 17482 ft 310 kts 125°
2026-05-09 03:37 -31.62962 -63.79362 18117 ft 313 kts 125°
2026-05-09 03:38 -31.64223 -63.77271 18761 ft 316 kts 125°
2026-05-09 03:38 -31.65491 -63.75166 19404 ft 319 kts 125°
2026-05-09 03:38 -31.66783 -63.73019 20052 ft 322 kts 125°
2026-05-09 03:38 -31.68066 -63.70887 20689 ft 326 kts 125°
2026-05-09 03:39 -31.69382 -63.68700 21336 ft 329 kts 125°
2026-05-09 03:39 -31.70705 -63.66499 21979 ft 332 kts 125°
2026-05-09 03:39 -31.72039 -63.64278 22622 ft 336 kts 125°
2026-05-09 03:39 -31.73382 -63.62041 23267 ft 339 kts 125°
2026-05-09 03:40 -31.74741 -63.59775 23918 ft 343 kts 125°
2026-05-09 03:40 -31.76103 -63.57505 24557 ft 346 kts 125°
2026-05-09 03:40 -31.77495 -63.55183 25202 ft 349 kts 125°
2026-05-09 03:40 -31.78894 -63.52846 25834 ft 348 kts 125°
2026-05-09 03:41 -31.80275 -63.50540 26460 ft 345 kts 125°
2026-05-09 03:41 -31.81634 -63.48267 27065 ft 342 kts 125°
2026-05-09 03:41 -31.83000 -63.45982 27672 ft 339 kts 125°
2026-05-09 03:41 -31.84334 -63.43751 28269 ft 335 kts 125°
2026-05-09 03:42 -31.85671 -63.41512 28874 ft 331 kts 125°
2026-05-09 03:42 -31.86972 -63.39332 29470 ft 325 kts 125°
2026-05-09 03:42 -31.88243 -63.37201 30079 ft 318 kts 125°
2026-05-09 03:42 -31.89590 -63.35123 30481 ft 319 kts 129°
2026-05-09 03:43 -31.90977 -63.33064 30714 ft 324 kts 128°
2026-05-09 03:43 -31.92385 -63.30973 30946 ft 329 kts 128°
2026-05-09 03:43 -31.93815 -63.28848 31188 ft 334 kts 128°
2026-05-09 03:43 -31.95271 -63.26686 31427 ft 339 kts 128°
2026-05-09 03:44 -31.96737 -63.24506 31642 ft 344 kts 128°
2026-05-09 03:44 -31.98215 -63.22308 31860 ft 348 kts 128°
2026-05-09 03:44 -31.99743 -63.20034 32080 ft 353 kts 128°
2026-05-09 03:44 -32.01255 -63.17783 32294 ft 357 kts 128°
2026-05-09 03:45 -32.02810 -63.15467 32511 ft 361 kts 128°
2026-05-09 03:45 -32.04376 -63.13132 32726 ft 365 kts 128°
2026-05-09 03:45 -32.05942 -63.10797 32895 ft 370 kts 128°
2026-05-09 03:45 -32.07555 -63.08389 32870 ft 380 kts 128°
2026-05-09 03:46 -32.10902 -63.03388 32893 ft 397 kts 128°
2026-05-09 03:46 -32.14334 -62.98253 32868 ft 399 kts 128°
2026-05-09 03:47 -32.17753 -62.93133 32869 ft 397 kts 128°
2026-05-09 03:47 -32.21150 -62.88037 32875 ft 400 kts 128°
2026-05-09 03:48 -32.24665 -62.82757 32894 ft 416 kts 128°
2026-05-09 03:48 -32.28313 -62.77269 32898 ft 432 kts 128°
2026-05-09 03:49 -32.32051 -62.71638 32894 ft 444 kts 128°
2026-05-09 03:49 -32.35868 -62.65879 32872 ft 444 kts 128°
2026-05-09 03:50 -32.39643 -62.60175 32871 ft 442 kts 128°
2026-05-09 03:50 -32.43441 -62.54427 32872 ft 442 kts 128°
2026-05-09 03:51 -32.47195 -62.48737 32872 ft 442 kts 128°
2026-05-09 03:51 -32.50976 -62.42998 32871 ft 442 kts 128°
2026-05-09 03:52 -32.54759 -62.37246 32871 ft 442 kts 128°
2026-05-09 03:52 -32.58097 -62.32164 32871 ft 442 kts 128°
2026-05-09 03:53 -32.61846 -62.26448 32871 ft 442 kts 128°
2026-05-09 03:53 -32.65635 -62.20661 32871 ft 442 kts 128°
2026-05-09 03:54 -32.69321 -62.14899 32867 ft 442 kts 124°
2026-05-09 03:54 -32.84841 -61.88298 32867 ft 442 kts 124°
2026-05-09 03:55 -33.05801 -61.52066 32879 ft 442 kts 124°
2026-05-09 03:55 -33.16206 -61.33946 32879 ft 442 kts 124°
2026-05-09 03:56 -33.18633 -61.29705 32880 ft 442 kts 124°
2026-05-09 03:56 -33.21044 -61.25490 32880 ft 442 kts 124°
2026-05-09 03:57 -33.23471 -61.21241 32881 ft 442 kts 124°
2026-05-09 03:57 -33.25887 -61.17007 32881 ft 442 kts 124°
2026-05-09 03:58 -33.28294 -61.12784 32881 ft 442 kts 124°
2026-05-09 03:58 -33.30712 -61.08536 32881 ft 442 kts 124°
2026-05-09 03:59 -33.33125 -61.04293 32881 ft 442 kts 124°
2026-05-09 03:59 -33.35534 -61.00051 32881 ft 442 kts 124°
2026-05-09 04:00 -33.37932 -60.95797 32881 ft 442 kts 124°
2026-05-09 04:00 -33.40331 -60.91531 32881 ft 442 kts 124°
2026-05-09 04:01 -33.42728 -60.87263 32881 ft 442 kts 124°
2026-05-09 04:01 -33.45129 -60.82983 32881 ft 442 kts 124°
2026-05-09 04:02 -33.47519 -60.78715 32881 ft 442 kts 124°
2026-05-09 04:02 -33.49896 -60.74468 32881 ft 442 kts 124°
2026-05-09 04:03 -33.52288 -60.70187 32881 ft 442 kts 124°
2026-05-09 04:03 -33.54685 -60.65894 32881 ft 442 kts 124°
2026-05-09 04:04 -33.57078 -60.61603 32881 ft 442 kts 124°
2026-05-09 04:04 -33.59462 -60.57323 32881 ft 442 kts 124°
2026-05-09 04:05 -33.61836 -60.53055 32881 ft 442 kts 124°
2026-05-09 04:05 -33.64222 -60.48761 32881 ft 442 kts 124°
2026-05-09 04:06 -33.66599 -60.44478 32881 ft 442 kts 124°
2026-05-09 04:06 -33.68988 -60.40168 32881 ft 442 kts 124°
2026-05-09 04:07 -33.71368 -60.35870 32881 ft 442 kts 124°
2026-05-09 04:07 -33.73000 -60.32920 32881 ft 442 kts 123°
2026-05-09 04:08 -33.74608 -60.30009 32881 ft 442 kts 123°
2026-05-09 04:08 -33.76987 -60.25700 32881 ft 442 kts 123°
2026-05-09 04:09 -33.79366 -60.21388 32642 ft 446 kts 123°
2026-05-09 04:09 -33.80574 -60.19194 32281 ft 444 kts 123°
2026-05-09 04:09 -33.81748 -60.17062 31946 ft 440 kts 123°
2026-05-09 04:10 -33.82922 -60.14927 31607 ft 436 kts 123°
2026-05-09 04:10 -33.84090 -60.12804 31270 ft 431 kts 123°
2026-05-09 04:10 -33.85231 -60.10729 30943 ft 428 kts 123°
2026-05-09 04:10 -33.86377 -60.08643 30613 ft 425 kts 123°
2026-05-09 04:11 -33.87513 -60.06573 30285 ft 423 kts 123°
2026-05-09 04:11 -33.88635 -60.04528 29962 ft 422 kts 123°
2026-05-09 04:11 -33.89766 -60.02467 29635 ft 420 kts 123°
2026-05-09 04:11 -33.90878 -60.00437 29313 ft 418 kts 123°
2026-05-09 04:12 -33.91997 -59.98394 28990 ft 416 kts 123°
2026-05-09 04:12 -33.93098 -59.96384 28672 ft 414 kts 123°
2026-05-09 04:12 -33.94199 -59.94371 28448 ft 410 kts 123°
2026-05-09 04:12 -33.95288 -59.92380 28149 ft 410 kts 123°
2026-05-09 04:13 -33.96387 -59.90368 27840 ft 409 kts 123°
2026-05-09 04:13 -33.97467 -59.88391 27525 ft 407 kts 123°
2026-05-09 04:13 -33.98559 -59.86391 27210 ft 405 kts 123°
2026-05-09 04:13 -33.99645 -59.84402 26895 ft 403 kts 123°
2026-05-09 04:14 -34.00706 -59.82456 26588 ft 400 kts 123°
2026-05-09 04:14 -34.01774 -59.80498 26279 ft 398 kts 123°
2026-05-09 04:14 -34.02825 -59.78567 25972 ft 395 kts 123°
2026-05-09 04:14 -34.03874 -59.76640 25659 ft 383 kts 123°
2026-05-09 04:15 -34.04874 -59.74803 25339 ft 369 kts 123°
2026-05-09 04:15 -34.05863 -59.72985 25132 ft 383 kts 123°
2026-05-09 04:15 -34.06903 -59.71071 24818 ft 394 kts 123°
2026-05-09 04:15 -34.07935 -59.69172 24496 ft 394 kts 123°
2026-05-09 04:16 -34.08992 -59.67226 24183 ft 390 kts 123°
2026-05-09 04:16 -34.10030 -59.65314 23879 ft 386 kts 123°
2026-05-09 04:16 -34.11048 -59.63436 23583 ft 382 kts 123°
2026-05-09 04:16 -34.12064 -59.61563 23289 ft 379 kts 123°
2026-05-09 04:17 -34.13061 -59.59723 23001 ft 378 kts 123°
2026-05-09 04:17 -34.14063 -59.57873 22710 ft 376 kts 123°
2026-05-09 04:17 -34.15065 -59.56023 22419 ft 375 kts 123°
2026-05-09 04:17 -34.16061 -59.54182 22129 ft 373 kts 123°
2026-05-09 04:18 -34.17041 -59.52370 21844 ft 372 kts 123°
2026-05-09 04:18 -34.18025 -59.50550 21557 ft 370 kts 123°
2026-05-09 04:18 -34.19009 -59.48728 21271 ft 368 kts 123°
2026-05-09 04:18 -34.19981 -59.46928 20987 ft 367 kts 123°
2026-05-09 04:19 -34.20952 -59.45130 20705 ft 365 kts 123°
2026-05-09 04:19 -34.21915 -59.43344 20424 ft 364 kts 123°
2026-05-09 04:19 -34.22877 -59.41560 20143 ft 362 kts 123°
2026-05-09 04:19 -34.23844 -59.39766 19862 ft 361 kts 123°
2026-05-09 04:20 -34.24789 -59.38011 19586 ft 359 kts 123°
2026-05-09 04:20 -34.25737 -59.36251 19309 ft 357 kts 123°
2026-05-09 04:20 -34.26685 -59.34489 19033 ft 356 kts 123°
2026-05-09 04:20 -34.27631 -59.32731 18757 ft 354 kts 123°
2026-05-09 04:21 -34.28565 -59.30993 18484 ft 353 kts 123°
2026-05-09 04:21 -34.29498 -59.29257 18211 ft 352 kts 123°
2026-05-09 04:21 -34.31352 -59.25804 17670 ft 349 kts 123°
2026-05-09 04:22 -34.32273 -59.24087 17401 ft 347 kts 123°
2026-05-09 04:22 -34.33195 -59.22368 17131 ft 346 kts 123°
2026-05-09 04:22 -34.34096 -59.20686 16867 ft 344 kts 123°
2026-05-09 04:22 -34.35013 -59.18976 16599 ft 343 kts 123°
2026-05-09 04:23 -34.35914 -59.17294 16336 ft 342 kts 123°
2026-05-09 04:23 -34.36816 -59.15608 16072 ft 340 kts 123°
2026-05-09 04:23 -34.37711 -59.13936 15810 ft 339 kts 123°
2026-05-09 04:23 -34.38602 -59.12269 15549 ft 338 kts 123°
2026-05-09 04:24 -34.39501 -59.10587 15285 ft 336 kts 123°
2026-05-09 04:24 -34.40389 -59.08926 15025 ft 335 kts 123°
2026-05-09 04:24 -34.41270 -59.07276 14767 ft 334 kts 123°
2026-05-09 04:24 -34.42151 -59.05626 14509 ft 332 kts 123°
2026-05-09 04:25 -34.43019 -59.03998 14254 ft 331 kts 123°
2026-05-09 04:25 -34.43887 -59.02356 13992 ft 330 kts 121°
2026-05-09 04:25 -34.44717 -59.00689 13727 ft 329 kts 121°
2026-05-09 04:25 -34.45535 -58.99045 13468 ft 327 kts 121°
2026-05-09 04:26 -34.46355 -58.97397 13209 ft 326 kts 121°
2026-05-09 04:26 -34.47174 -58.95750 12950 ft 325 kts 121°
2026-05-09 04:26 -34.47992 -58.94104 12691 ft 324 kts 121°
2026-05-09 04:26 -34.48797 -58.92485 12436 ft 322 kts 121°
2026-05-09 04:27 -34.49605 -58.90861 12181 ft 321 kts 121°
2026-05-09 04:27 -34.50418 -58.89234 11924 ft 320 kts 121°
2026-05-09 04:27 -34.51223 -58.87626 11670 ft 318 kts 121°
2026-05-09 04:27 -34.52017 -58.86037 11411 ft 314 kts 121°
2026-05-09 04:28 -34.52803 -58.84466 11146 ft 310 kts 121°
2026-05-09 04:28 -34.53583 -58.82904 10874 ft 306 kts 121°
2026-05-09 04:28 -34.54346 -58.81373 10589 ft 302 kts 121°
2026-05-09 04:28 -34.55099 -58.79863 10298 ft 298 kts 121°
2026-05-09 04:29 -34.55841 -58.78373 10011 ft 293 kts 121°
2026-05-09 04:29 -34.56578 -58.76895 9727 ft 288 kts 121°
2026-05-09 04:29 -34.57294 -58.75457 9456 ft 285 kts 121°
2026-05-09 04:29 -34.58004 -58.74031 9195 ft 283 kts 121°
2026-05-09 04:30 -34.58721 -58.72593 8932 ft 282 kts 121°
2026-05-09 04:30 -34.59429 -58.71172 8673 ft 282 kts 121°
2026-05-09 04:30 -34.60133 -58.69757 8415 ft 281 kts 121°
2026-05-09 04:30 -34.60840 -58.68337 8154 ft 281 kts 121°
2026-05-09 04:31 -34.61541 -58.66929 7995 ft 276 kts 121°
2026-05-09 04:31 -34.62236 -58.65532 7901 ft 277 kts 121°
2026-05-09 04:31 -34.62932 -58.64133 7755 ft 278 kts 121°
2026-05-09 04:31 -34.63638 -58.62714 7613 ft 278 kts 121°
2026-05-09 04:32 -34.64336 -58.61311 7470 ft 278 kts 121°
2026-05-09 04:32 -34.65031 -58.59912 7328 ft 277 kts 121°
2026-05-09 04:32 -34.65731 -58.58503 7184 ft 277 kts 121°
2026-05-09 04:32 -34.66426 -58.57105 7041 ft 276 kts 121°
2026-05-09 04:33 -34.67113 -58.55722 6900 ft 276 kts 121°
2026-05-09 04:33 -34.67813 -58.54313 6756 ft 275 kts 121°
2026-05-09 04:33 -34.68498 -58.52935 6615 ft 274 kts 121°
2026-05-09 04:33 -34.69191 -58.51537 6473 ft 274 kts 121°
2026-05-09 04:34 -34.69878 -58.50153 6331 ft 273 kts 121°
2026-05-09 04:34 -34.70557 -58.48787 6192 ft 273 kts 121°
2026-05-09 04:34 -34.71244 -58.47402 6051 ft 272 kts 121°
2026-05-09 04:34 -34.71924 -58.46031 5908 ft 272 kts 121°
2026-05-09 04:35 -34.72603 -58.44655 5752 ft 269 kts 121°
2026-05-09 04:35 -34.73268 -58.43307 5579 ft 260 kts 121°
2026-05-09 04:35 -34.73911 -58.42004 5410 ft 252 kts 121°
2026-05-09 04:35 -34.74501 -58.40737 5244 ft 244 kts 114°
2026-05-09 04:36 -34.74929 -58.39458 5103 ft 236 kts 112°
2026-05-09 04:36 -34.75353 -58.38180 4951 ft 229 kts 112°
2026-05-09 04:36 -34.75692 -58.36925 4797 ft 224 kts 96°
2026-05-09 04:36 -34.75743 -58.35600 4691 ft 222 kts 92°
2026-05-09 04:37 -34.75780 -58.34288 4565 ft 223 kts 91°
2026-05-09 04:37 -34.75816 -58.32966 4440 ft 223 kts 91°
2026-05-09 04:37 -34.75847 -58.31651 4314 ft 223 kts 88°
2026-05-09 04:37 -34.75582 -58.30373 4195 ft 222 kts 70°
2026-05-09 04:38 -34.75150 -58.29174 4065 ft 222 kts 57°
2026-05-09 04:38 -34.74556 -58.28098 3938 ft 214 kts 56°
2026-05-09 04:38 -34.73979 -58.27062 3798 ft 207 kts 56°
2026-05-09 04:38 -34.73409 -58.26070 3659 ft 201 kts 47°
2026-05-09 04:39 -34.72610 -58.25447 3558 ft 196 kts 25°
2026-05-09 04:39 -34.71743 -58.24959 3490 ft 195 kts 25°
2026-05-09 04:39 -34.70883 -58.24474 3417 ft 197 kts 25°
2026-05-09 04:39 -34.70009 -58.23982 3306 ft 198 kts 25°
2026-05-09 04:40 -34.69140 -58.23492 3196 ft 198 kts 25°
2026-05-09 04:40 -34.68266 -58.23000 3108 ft 196 kts 25°
2026-05-09 04:40 -34.67400 -58.22515 3111 ft 195 kts 23°
2026-05-09 04:40 -34.66486 -58.22436 3087 ft 187 kts 339°
2026-05-09 04:41 -34.65822 -58.23130 3126 ft 180 kts 303°
2026-05-09 04:41 -34.65371 -58.24020 3162 ft 173 kts 299°
2026-05-09 04:41 -34.64962 -58.24908 3104 ft 172 kts 299°
2026-05-09 04:41 -34.64550 -58.25803 3107 ft 171 kts 298°
2026-05-09 04:42 -34.64176 -58.26702 3072 ft 172 kts 296°
2026-05-09 04:42 -34.63819 -58.27629 3000 ft 173 kts 296°
2026-05-09 04:42 -34.63350 -58.28489 2892 ft 171 kts 310°
2026-05-09 04:42 -34.62837 -58.29179 2886 ft 155 kts 309°
2026-05-09 04:43 -34.62394 -58.29905 2822 ft 150 kts 304°
2026-05-09 04:43 -34.61992 -58.30662 2652 ft 153 kts 302°
2026-05-09 04:43 -34.61600 -58.31420 2502 ft 152 kts 303°
2026-05-09 04:43 -34.61200 -58.32179 2306 ft 153 kts 303°
2026-05-09 04:44 -34.60783 -58.32933 1992 ft 155 kts 304°
2026-05-09 04:44 -34.60360 -58.33666 1719 ft 149 kts 304°
2026-05-09 04:44 -34.59942 -58.34376 1387 ft 150 kts 309°
2026-05-09 04:44 -34.59535 -58.35086 1163 ft 143 kts 302°
2026-05-09 04:45 -34.59156 -58.35794 926 ft 142 kts 302°
2026-05-09 04:45 -34.58775 -58.36505 712 ft 141 kts 304°
2026-05-09 04:45 -34.58401 -58.37171 681 ft 134 kts 303°
2026-05-09 04:45 -34.58027 -58.37854 629 ft 145 kts 303°
2026-05-09 04:46 -34.57624 -58.38571 561 ft 145 kts 304°
2026-05-09 04:46 -34.57228 -58.39288 361 ft 146 kts 304°
2026-05-09 04:46 -34.56817 -58.39995 197 ft 144 kts 302°
2026-05-09 04:46 -34.56430 -58.40693 48 ft 137 kts 306°
2026-05-09 04:47 -34.56084 -58.41295 26 ft 108 kts 300°
2026-05-09 04:47 -34.55863 -58.41693 26 ft 48 kts 304°
2026-05-09 04:47 -34.55777 -58.41844 26 ft 23 kts 304°
2026-05-09 04:47 -34.55739 -58.41913 26 ft 7 kts 308°
2026-05-09 04:48 -34.55724 -58.41930 26 ft 9 kts 327°
2026-05-09 04:48 -34.55689 -58.41924 26 ft 0 kts 32°
2026-05-09 04:48 -34.55688 -58.41923 26 ft 0 kts 35°
2026-05-09 04:48 -34.55667 -58.41905 26 ft 17 kts 36°
2026-05-09 04:49 -34.55604 -58.41819 26 ft 19 kts 109°
2026-05-09 04:49 -34.55658 -58.41728 26 ft 18 kts 128°
2026-05-09 04:49 -34.55708 -58.41637 26 ft 18 kts 120°
2026-05-09 04:49 -34.55718 -58.41540 26 ft 16 kts 87°
2026-05-09 04:50 -34.55750 -58.41455 26 ft 16 kts 117°
2026-05-09 04:50 -34.55777 -58.41391 26 ft 9 kts 116°
2026-05-09 04:50 -34.55804 -58.41344 26 ft 9 kts 123°
2026-05-09 04:50 -34.55823 -58.41293 26 ft 3 kts 87°
2026-05-09 04:51 -34.55808 -58.41274 26 ft 4 kts 39°
2026-05-09 04:51 -34.55795 -58.41262 26 ft 0 kts 38°